Weather History for FVHA - December, 2012

Change the Weather History Date:

Friday, December 28, 2012

  Actual Average Record
Temperature  
Mean Temperature 68 °F -  
Max Temperature 73 °F 79 °F 86 °F (1999)
Min Temperature 62 °F 60 °F 59 °F (2002)
Cooling Degree Days 2    
Growing Degree Days 18 (Base 50)    
Moisture  
Dew Point 63 °F    
Average Humidity 86    
Maximum Humidity 100    
Minimum Humidity 73    
Precipitation  
Precipitation 0.00 in 0.25 in - ()
Sea Level Pressure  
Sea Level Pressure 30.10 in    
Wind  
Wind Speed 6 mph ()    
Max Wind Speed 12 mph    
Max Gust Speed -    
Visibility 8.2 miles    
Events Rain , Thunderstorm    
Averages and records for this station are not official NWS values.
T = Trace of Precipitation, MM = Missing Value Source: Averaged Metar Reports

Daily Weather History Graph

Daily Weather History Graph

Search for Another Location

Airport or City:

Trip Planner

Search our weather history database for the weather conditions in past years. The results will help you decide how hot, cold, wet, or windy it might be!

Date:

Astronomy

Dec. 28, 2012 Rise Set
Actual Time 5:21 AM CAT 6:33 PM CAT
Civil Twilight 4:57 AM CAT 6:57 PM CAT
Nautical Twilight 4:28 AM CAT 7:25 PM CAT
Astronomical Twilight 3:58 AM CAT 7:55 PM CAT
Moon 6:34 PM CAT (12/28) 5:14 AM CAT (12/28)
Length of Visible Light 14h 00m
Length of Day
13h 11m
Full, 100% of the Moon is Illuminated
Dec 28
Full
Dec 28
Full
Jan 5
Last Quarter
Jan 11
New
Jan 19
First Quarter

Hourly Weather History & Observations

Time (CAT) Temp. Dew Point Humidity Pressure Visibility Wind Dir Wind Speed Gust Speed Precip Events Conditions
12:00 AM 66.2 °F 62.6 °F 88% 30.12 in 6.2 mi East 8.1 mph - N/A   Mostly Cloudy
2:00 AM 65 °F 63 °F 89%  in 19 mi ENE 5.8 mph - -   Mostly Cloudy
2:00 AM 64.4 °F 62.6 °F 94% 30.06 in - ENE 5.8 mph - N/A   Clear
3:00 AM 66.2 °F 62.6 °F 88% 30.06 in - NE 4.6 mph - N/A   Clear
5:00 AM 64.4 °F 62.6 °F 94% 30.09 in - NE 4.6 mph - N/A   Clear
6:00 AM 64.4 °F 62.6 °F 94% 30.09 in 6.2 mi NE 6.9 mph - N/A   Mostly Cloudy
7:00 AM 66.2 °F 64.4 °F 94% 30.15 in 6.2 mi NNE 5.8 mph - N/A   Mostly Cloudy
8:00 AM 68.0 °F 64.4 °F 88% 30.15 in 6.2 mi North 8.1 mph - N/A   Mostly Cloudy
9:00 AM 71.6 °F 64.4 °F 78% 30.15 in 6.2 mi NE 9.2 mph - N/A   Mostly Cloudy
10:00 AM 71.6 °F 64.4 °F 78% 30.15 in 6.2 mi ENE 6.9 mph - N/A   Mostly Cloudy
11:00 AM 71.6 °F 64.4 °F 78% 30.15 in 6.2 mi SW 10.4 mph - N/A   Mostly Cloudy
12:00 PM 62.6 °F 60.8 °F 94% 30.12 in 3.1 mi NW 5.8 mph - N/A Rain , Thunderstorm Thunderstorms and Rain
1:00 PM 68.0 °F 66.2 °F 94% 30.09 in 6.2 mi West 6.9 mph - N/A   Scattered Clouds
2:00 PM 69 °F 65 °F 82%  in 19 mi West 10.4 mph - -   Mostly Cloudy
2:00 PM 69.8 °F 64.4 °F 83% 30.09 in 6.2 mi West 10.4 mph - N/A   Mostly Cloudy
3:00 PM 71.6 °F 64.4 °F 78% 30.04 in 6.2 mi NNW 11.5 mph - N/A   Mostly Cloudy
4:00 PM 71.6 °F 64.4 °F 78% 30.04 in 6.2 mi West 8.1 mph - N/A   Mostly Cloudy
5:00 PM 73.4 °F 64.4 °F 73% 30.04 in 6.2 mi SSW 4.6 mph - N/A   Mostly Cloudy
6:00 PM 71.6 °F 62.6 °F 73% 30.06 in 6.2 mi SE 4.6 mph - N/A   Mostly Cloudy
7:00 PM 68.0 °F 60.8 °F 78% 30.09 in 6.2 mi SE 8.1 mph - N/A Rain Light Rain
8:00 PM 66 °F 64 °F 90%  in 19 mi ESE 6.9 mph - - Rain Light Rain
8:00 PM 64.4 °F 64.4 °F 100% 30.09 in - ESE 6.9 mph - N/A   Clear
9:00 PM 64.4 °F 60.8 °F 88% 30.12 in - East 8.1 mph - N/A   Clear
10:00 PM 66.2 °F 60.8 °F 83% 30.15 in - ENE 9.2 mph - N/A   Clear
11:00 PM 64.4 °F 60.8 °F 88% 30.12 in - ENE 10.4 mph - N/A   Clear